Radioactive Concentration measured by Seawater Radiation Monitor near Fukushima Daiichi Nuclear Power Station
Date,Time,Cs137(Bq/L),Cs134(Bq/L),Total β(Bq/L)
2020/04/18,00:00,0.44,ND,24
2020/04/18,00:10,0.43,ND,25
2020/04/18,00:20,0.39,ND,24
2020/04/18,00:30,0.42,ND,24
2020/04/18,00:40,0.43,ND,25
2020/04/18,00:50,0.43,ND,26
2020/04/18,01:00,0.44,ND,25
2020/04/18,01:10,0.45,ND,29
2020/04/18,01:20,0.45,ND,29
2020/04/18,01:30,0.46,ND,29
2020/04/18,01:40,0.46,ND,27
2020/04/18,01:50,0.45,ND,27
2020/04/18,02:00,0.44,ND,29
2020/04/18,02:10,0.43,ND,28
2020/04/18,02:20,0.46,ND,28
2020/04/18,02:30,0.44,ND,28
2020/04/18,02:40,0.45,ND,29
2020/04/18,02:50,0.44,ND,30
2020/04/18,03:00,0.44,ND,31
2020/04/18,03:10,0.45,ND,29
2020/04/18,03:20,0.44,ND,30
2020/04/18,03:30,0.47,ND,29
2020/04/18,03:40,0.46,ND,28
2020/04/18,03:50,0.47,ND,28
2020/04/18,04:00,0.47,ND,25
2020/04/18,04:10,0.46,ND,24
2020/04/18,04:20,0.44,ND,24
2020/04/18,04:30,0.42,ND,27
2020/04/18,04:40,0.42,ND,25
2020/04/18,04:50,0.42,ND,25
2020/04/18,05:00,0.45,ND,26
2020/04/18,05:10,0.43,ND,30
2020/04/18,05:20,0.47,ND,30
2020/04/18,05:30,0.48,ND,30
2020/04/18,05:40,0.49,ND,32
2020/04/18,05:50,0.49,ND,31
2020/04/18,06:00,0.46,ND,31
2020/04/18,06:10,0.48,ND,30
2020/04/18,06:20,0.43,ND,29
2020/04/18,06:30,0.42,ND,28
2020/04/18,06:40,0.46,ND,26
2020/04/18,06:50,0.49,ND,26
2020/04/18,07:00,0.50,ND,28
2020/04/18,07:10,0.51,ND,28
2020/04/18,07:20,0.50,ND,29
2020/04/18,07:30,0.50,ND,27
2020/04/18,07:40,0.49,ND,30
2020/04/18,07:50,0.47,ND,32
2020/04/18,08:00,0.47,ND,29
2020/04/18,08:10,0.45,ND,28
2020/04/18,08:20,0.45,ND,25
2020/04/18,08:30,0.46,ND,27
2020/04/18,08:40,0.45,ND,26
2020/04/18,08:50,0.45,ND,24
2020/04/18,09:00,0.45,ND,24
2020/04/18,09:10,0.45,ND,24
2020/04/18,09:20,0.41,ND,27
2020/04/18,09:30,0.41,ND,26
2020/04/18,09:40,0.45,ND,28
2020/04/18,09:50,0.43,ND,28
2020/04/18,10:00,0.42,ND,28
2020/04/18,10:10,0.42,ND,27
2020/04/18,10:20,0.40,ND,28
2020/04/18,10:30,0.38,ND,30
2020/04/18,10:40,0.40,ND,29
2020/04/18,10:50,0.41,ND,29
2020/04/18,11:00,0.42,ND,33
2020/04/18,11:10,0.39,ND,37
2020/04/18,11:20,0.39,ND,38
2020/04/18,11:30,0.38,ND,38
2020/04/18,11:40,0.36,ND,36
2020/04/18,11:50,0.35,ND,35
2020/04/18,12:00,0.35,ND,33
2020/04/18,12:10,0.36,ND,31
2020/04/18,12:20,0.37,ND,28
2020/04/18,12:30,0.36,ND,25
2020/04/18,12:40,0.37,ND,28
2020/04/18,12:50,0.38,ND,30
2020/04/18,13:00,0.37,ND,31
2020/04/18,13:10,0.38,ND,30
2020/04/18,13:20,0.37,ND,32
2020/04/18,13:30,0.37,ND,35
2020/04/18,13:40,0.36,ND,31
2020/04/18,13:50,0.35,ND,29
2020/04/18,14:00,0.35,ND,28
2020/04/18,14:10,0.33,ND,28
2020/04/18,14:20,0.33,ND,30
2020/04/18,14:30,0.33,ND,26
2020/04/18,14:40,0.33,ND,29
2020/04/18,14:50,0.33,ND,31
2020/04/18,15:00,0.32,ND,28
2020/04/18,15:10,0.33,ND,30
2020/04/18,15:20,0.32,ND,29
2020/04/18,15:30,0.31,ND,33
2020/04/18,15:40,0.31,ND,31
2020/04/18,15:50,0.31,ND,31
2020/04/18,16:00,0.32,ND,35
2020/04/18,16:10,0.31,ND,34
2020/04/18,16:20,0.33,ND,33
2020/04/18,16:30,0.36,ND,31
2020/04/18,16:40,0.37,ND,32
2020/04/18,16:50,0.38,ND,31
2020/04/18,17:00,0.39,ND,32
2020/04/18,17:10,0.39,ND,30
2020/04/18,17:20,0.40,ND,32
2020/04/18,17:30,0.39,ND,30
2020/04/18,17:40,0.38,ND,30
2020/04/18,17:50,0.39,ND,27
2020/04/18,18:00,0.39,ND,24
2020/04/18,18:10,0.38,ND,27
2020/04/18,18:20,0.38,ND,27
2020/04/18,18:30,0.38,ND,29
2020/04/18,18:40,0.39,ND,30
2020/04/18,18:50,0.38,ND,32
2020/04/18,19:00,0.38,ND,35
2020/04/18,19:10,0.41,ND,35
2020/04/18,19:20,0.41,ND,35
2020/04/18,19:30,0.43,ND,37
2020/04/18,19:40,0.45,ND,37
2020/04/18,19:50,0.47,ND,38
2020/04/18,20:00,0.47,ND,39
2020/04/18,20:10,0.45,ND,38
2020/04/18,20:20,0.45,ND,37
2020/04/18,20:30,0.43,ND,34
2020/04/18,20:40,0.42,ND,36
2020/04/18,20:50,0.41,ND,35
2020/04/18,21:00,0.42,ND,32
2020/04/18,21:10,0.44,ND,32
2020/04/18,21:20,0.45,ND,33
2020/04/18,21:30,0.46,ND,34
2020/04/18,21:40,0.45,ND,33
2020/04/18,21:50,0.43,ND,35
2020/04/18,22:00,0.43,ND,37
2020/04/18,22:10,0.43,ND,36
2020/04/18,22:20,0.43,ND,36
2020/04/18,22:30,0.41,ND,36
2020/04/18,22:40,0.40,ND,34
2020/04/18,22:50,0.40,ND,34
2020/04/18,23:00,0.36,ND,31
2020/04/18,23:10,0.35,ND,33
2020/04/18,23:20,0.36,ND,32
2020/04/18,23:30,0.40,ND,33
2020/04/18,23:40,0.41,ND,35
2020/04/18,23:50,0.44,ND,33
